Station LAMV3 - 9751381 - Lameshur Bay, St John, VI Image indicating link to RSS feed of recent meteorological observations for station LAMV3


Conditions at LAMV3 as of
(1:18 pm AST)
1718 GMT on 04/18/2024:
     

Click on the graph icon in the table below to see a time series plot of the last five days of that observation.

5-day plot - Atmospheric Pressure Atmospheric Pressure (PRES):29.89 in
5-day plot - Air Temperature Air Temperature (ATMP): 85.5 °F
NOS Water Level Observation Network Water Level
Previous observations
TIME
(AST)
5-day plot - Wind Direction
WDIR
 
5-day plot - Wind Speed
WSPD
kts
5-day plot - Wind Gust
GST
kts
5-day plot - Wave Height
WVHT
ft
5-day plot - Dominant Wave Period
DPD
sec
5-day plot - Average Wave Period
APD
sec
5-day plot - Mean Wave Direction
MWD
 
5-day plot - Atmospheric Pressure
PRES
in
5-day plot - Pressure Tendency
PTDY
in
5-day plot - Air Temperature
ATMP
°F
5-day plot - Water Temperature
WTMP
°F
5-day plot - Dew Point
DEWP
°F
5-day plot - Salinity
SAL
psu
5-day plot - Visibility
VIS
nmi
5-day plot - Tide (above MLLW)
TIDE
ft
2024-04-18 01:12 pm-------29.89- 86.2-----
2024-04-18 01:06 pm-------29.89- 85.6-----
2024-04-18 01:00 pm-------29.89-0.03 85.6-----
2024-04-18 12:54 pm-------29.90- 86.2-----
2024-04-18 12:48 pm-------29.90- 85.8-----
2024-04-18 12:42 pm-------29.90- 85.5-----
2024-04-18 12:36 pm-------29.90- 86.4-----
2024-04-18 12:30 pm-------29.91- 85.8-----
2024-04-18 12:24 pm-------29.91- 85.6-----
2024-04-18 12:18 pm-------29.91- 85.5-----
2024-04-18 12:12 pm-------29.91- 85.1-----
2024-04-18 12:06 pm-------29.91- 84.0-----
2024-04-18 12:00 pm-------29.91+0.00 84.9-----
2024-04-18 11:54 am-------29.92- 83.3-----
2024-04-18 11:48 am-------29.92- 84.2-----
2024-04-18 11:42 am-------29.92- 83.8-----
2024-04-18 11:36 am-------29.92- 84.2-----
2024-04-18 11:30 am-------29.92- 83.8-----
2024-04-18 11:24 am-------29.92- 83.7-----
2024-04-18 11:18 am-------29.92- 83.7-----
2024-04-18 11:12 am-------29.93- 84.4-----
2024-04-18 11:06 am-------29.92- 84.7-----
2024-04-18 11:00 am-------29.93+0.00 85.1-----
2024-04-18 10:54 am-------29.93- 85.3-----
2024-04-18 10:48 am-------29.93- 86.4-----
2024-04-18 10:42 am-------29.93- 86.2-----
2024-04-18 10:36 am-------29.93- 86.4-----
2024-04-18 10:30 am-------29.93- 86.0-----
2024-04-18 10:24 am-------29.93- 86.2-----
2024-04-18 10:18 am-------29.93- 84.7-----
2024-04-18 10:12 am-------29.93- 84.7-----
2024-04-18 10:06 am-------29.93- 85.5-----
2024-04-18 10:00 am-------29.92+0.02 85.6-----
2024-04-18 09:54 am-------29.92- 85.1-----
2024-04-18 09:48 am-------29.92- 86.0-----
2024-04-18 09:42 am-------29.92- 85.6-----
2024-04-18 09:36 am-------29.92- 85.3-----
2024-04-18 09:30 am-------29.92- 84.9-----
2024-04-18 09:24 am-------29.92- 84.6-----
2024-04-18 09:18 am-------29.92- 84.7-----
2024-04-18 09:12 am-------29.92- 84.6-----
2024-04-18 09:06 am-------29.92- 84.4-----
2024-04-18 09:00 am-------29.92+0.04 85.3-----
2024-04-18 08:54 am-------29.91- 84.6-----
2024-04-18 08:48 am-------29.91- 84.6-----
2024-04-18 08:42 am-------29.91- 84.9-----
2024-04-18 08:36 am-------29.92- 84.0-----
2024-04-18 08:30 am-------29.92- 84.0-----
2024-04-18 08:24 am-------29.92- 83.8-----
2024-04-18 08:18 am-------29.92- 83.5-----
2024-04-18 08:12 am-------29.92- 82.8-----
2024-04-18 08:06 am-------29.92- 83.8-----
2024-04-18 08:00 am-------29.92+0.07 83.7-----
2024-04-18 07:54 am-------29.92- 84.0-----
2024-04-18 07:48 am-------29.92- 84.0-----
2024-04-18 07:42 am-------29.91- 83.5-----
2024-04-18 07:36 am-------29.91- 83.5-----
2024-04-18 07:30 am-------29.91- 83.3-----
2024-04-18 07:24 am-------29.91- 82.6-----
2024-04-18 07:18 am-------29.91- 82.6-----
2024-04-18 07:12 am-------29.90- 81.7-----
2024-04-18 07:06 am-------29.90- 81.9-----
2024-04-18 07:00 am-------29.90+0.05 80.4-----
2024-04-18 06:54 am-------29.90- 78.6-----
2024-04-18 06:48 am-------29.89- 77.9-----
2024-04-18 06:42 am-------29.89- 77.7-----
2024-04-18 06:36 am-------29.89- 77.5-----
2024-04-18 06:30 am-------29.88- 77.4-----
2024-04-18 06:24 am-------29.88- 77.2-----
2024-04-18 06:18 am-------29.88- 77.0-----
2024-04-18 06:12 am-------29.88- 77.0-----
2024-04-18 06:06 am-------29.88- 77.0-----
2024-04-18 06:00 am-------29.87+0.00 77.0-----
2024-04-18 05:54 am-------29.87- 76.8-----
2024-04-18 05:48 am-------29.87- 77.2-----
2024-04-18 05:42 am-------29.86- 77.2-----
2024-04-18 05:36 am-------29.86- 76.8-----
2024-04-18 05:30 am-------29.86- 77.0-----
2024-04-18 05:24 am-------29.85- 77.2-----
2024-04-18 05:18 am-------29.85- 77.4-----
2024-04-18 05:12 am-------29.85- 77.2-----
2024-04-18 05:06 am-------29.85- 77.4-----
2024-04-18 05:00 am-------29.85-0.04 77.4-----
2024-04-18 04:54 am-------29.85- 77.5-----
2024-04-18 04:48 am-------29.85- 77.4-----
2024-04-18 04:42 am-------29.84- 77.4-----
2024-04-18 04:36 am-------29.84- 77.4-----
2024-04-18 04:30 am-------29.84- 77.4-----
2024-04-18 04:24 am-------29.84- 77.5-----
2024-04-18 04:18 am-------29.84- 77.5-----
2024-04-18 04:12 am-------29.84- 77.2-----
2024-04-18 04:06 am-------29.85- 77.2-----
2024-04-18 04:00 am-------29.85-0.06 77.0-----
2024-04-18 03:54 am-------29.85- 77.0-----
2024-04-18 03:48 am-------29.85- 76.6-----
2024-04-18 03:42 am-------29.85- 76.3-----
2024-04-18 03:36 am-------29.85- 75.7-----
2024-04-18 03:30 am-------29.85- 75.6-----
2024-04-18 03:24 am-------29.86- 75.2-----
2024-04-18 03:18 am-------29.86- 75.0-----
2024-04-18 03:12 am-------29.86- 74.8-----
2024-04-18 03:06 am-------29.87- 74.7-----
2024-04-18 03:00 am-------29.87-0.04 74.8-----
2024-04-18 02:54 am-------29.87- 75.2-----
2024-04-18 02:48 am-------29.87- 75.2-----
2024-04-18 02:42 am-------29.87- 75.2-----
2024-04-18 02:36 am-------29.87- 75.4-----
2024-04-18 02:30 am-------29.87- 75.9-----
2024-04-18 02:24 am-------29.88- 76.1-----
2024-04-18 02:18 am-------29.88- 76.3-----
2024-04-18 02:12 am-------29.88- 76.6-----
2024-04-18 02:06 am-------29.88- 76.8-----
2024-04-18 02:00 am-------29.88-0.04 76.8-----
2024-04-18 01:54 am-------29.88- 77.0-----
2024-04-18 01:48 am-------29.89- 77.0-----
2024-04-18 01:42 am-------29.89- 77.2-----
2024-04-18 01:36 am-------29.89- 77.4-----
2024-04-18 01:30 am-------29.89- 77.4-----
2024-04-18 01:24 am-------29.90- 77.7-----
2024-04-18 01:18 am-------29.90- 77.5-----
2024-04-18 01:12 am-------29.90- 77.7-----
2024-04-18 01:06 am-------29.90- 77.9-----
2024-04-18 01:00 am-------29.90-0.01 78.1-----
2024-04-18 12:54 am-------29.91- 78.1-----
2024-04-18 12:48 am-------29.91- 78.1-----
2024-04-18 12:42 am-------29.91- 78.6-----
2024-04-18 12:36 am-------29.91- 78.4-----
2024-04-18 12:30 am-------29.91- 79.0-----
2024-04-18 12:24 am-------29.91- 79.0-----
2024-04-18 12:18 am-------29.91- 78.8-----
2024-04-18 12:12 am-------29.91- 78.8-----
2024-04-18 12:06 am-------29.91- 78.8-----
2024-04-18 12:00 am-------29.91+0.00 79.0-----
2024-04-17 11:54 pm-------29.91- 78.6-----
2024-04-17 11:48 pm-------29.91- 78.6-----
2024-04-17 11:42 pm-------29.91- 78.8-----
2024-04-17 11:36 pm-------29.91- 79.0-----
2024-04-17 11:30 pm-------29.92- 79.0-----
2024-04-17 11:24 pm-------29.92- 79.0-----
2024-04-17 11:18 pm-------29.92- 79.0-----
2024-04-17 11:12 pm-------29.92- 78.8-----
2024-04-17 11:06 pm-------29.92- 78.8-----
2024-04-17 11:00 pm-------29.92+0.02 79.0-----
2024-04-17 10:54 pm-------29.92- 79.0-----
2024-04-17 10:48 pm-------29.92- 79.2-----
2024-04-17 10:42 pm-------29.92- 79.3-----
2024-04-17 10:36 pm-------29.92- 79.0-----
2024-04-17 10:30 pm-------29.92- 79.0-----
2024-04-17 10:24 pm-------29.92- 79.0-----
2024-04-17 10:18 pm-------29.92- 79.0-----
2024-04-17 10:12 pm-------29.92- 79.0-----
2024-04-17 10:06 pm-------29.92- 79.0-----
2024-04-17 10:00 pm-------29.92+0.02 79.0-----
2024-04-17 09:54 pm-------29.91- 79.0-----
2024-04-17 09:48 pm-------29.92- 79.0-----
2024-04-17 09:42 pm-------29.91- 79.0-----
2024-04-17 09:36 pm-------29.92- 79.2-----
2024-04-17 09:30 pm-------29.92- 79.2-----
2024-04-17 09:24 pm-------29.92- 79.0-----
2024-04-17 09:18 pm-------29.92- 79.2-----
2024-04-17 09:12 pm-------29.92- 79.0-----
2024-04-17 09:06 pm-------29.92- 79.0-----
2024-04-17 09:00 pm-------29.91+0.03 79.0-----
2024-04-17 08:54 pm-------29.91- 79.2-----
2024-04-17 08:48 pm-------29.91- 79.0-----
2024-04-17 08:42 pm-------29.91- 79.2-----
2024-04-17 08:36 pm-------29.91- 79.2-----
2024-04-17 08:30 pm-------29.90- 79.0-----
2024-04-17 08:24 pm-------29.90- 79.2-----
2024-04-17 08:18 pm-------29.90- 79.2-----
2024-04-17 08:12 pm-------29.90- 79.3-----
2024-04-17 08:06 pm-------29.90- 79.2-----
2024-04-17 08:00 pm-------29.90+0.04 79.2-----
2024-04-17 07:54 pm-------29.90- 79.3-----
2024-04-17 07:48 pm-------29.90- 79.2-----
2024-04-17 07:42 pm-------29.90- 79.2-----
2024-04-17 07:36 pm-------29.90- 79.2-----
2024-04-17 07:30 pm-------29.90- 79.0-----
2024-04-17 07:24 pm-------29.90- 79.2-----
2024-04-17 07:18 pm-------29.90- 79.3-----
2024-04-17 07:00 pm-------29.90+0.04 79.5-----
2024-04-17 06:54 pm-------29.90- 79.5-----
2024-04-17 06:48 pm-------29.90- 79.7-----
2024-04-17 06:42 pm-------29.89- 79.7-----
2024-04-17 06:36 pm-------29.89- 79.9-----
2024-04-17 06:30 pm-------29.89- 80.2-----
2024-04-17 06:24 pm-------29.89- 80.1-----
2024-04-17 06:18 pm-------29.89- 80.2-----
2024-04-17 06:12 pm-------29.89- 80.2-----
2024-04-17 06:06 pm-------29.88- 80.4-----
2024-04-17 06:00 pm-------29.88+0.02------
2024-04-17 05:54 pm-------29.88-------
2024-04-17 05:48 pm-------29.87- 81.0-----
2024-04-17 05:42 pm-------29.87- 80.8-----
2024-04-17 05:36 pm-------29.87- 81.0-----
2024-04-17 05:30 pm-------29.87- 81.1-----
2024-04-17 05:24 pm-------29.86- 81.1-----
2024-04-17 05:18 pm-------29.86- 81.5-----
2024-04-17 05:12 pm-------29.86- 81.5-----
2024-04-17 05:06 pm-------29.86- 81.9-----
2024-04-17 05:00 pm-------29.86-0.02 82.2-----
2024-04-17 04:54 pm-------29.86- 82.0-----
2024-04-17 04:48 pm-------29.86- 82.2-----
2024-04-17 04:42 pm-------29.86- 82.6-----
2024-04-17 04:36 pm-------29.86- 82.6-----
2024-04-17 04:30 pm-------29.85- 83.3-----
2024-04-17 04:24 pm-------29.85- 82.9-----
2024-04-17 04:18 pm-------29.86- 82.9-----
2024-04-17 04:12 pm-------29.86- 83.1-----
2024-04-17 04:06 pm-------29.86- 82.8-----
2024-04-17 04:00 pm-------29.86-0.04 83.5-----
2024-04-17 03:54 pm-------29.86- 83.7-----
2024-04-17 03:48 pm-------29.86- 83.8-----
2024-04-17 03:42 pm-------29.86- 83.7-----
2024-04-17 03:36 pm-------29.86- 83.5-----
2024-04-17 03:30 pm-------29.86- 83.3-----
2024-04-17 03:24 pm-------29.86- 83.1-----
2024-04-17 03:18 pm-------29.86- 82.6-----
2024-04-17 03:12 pm-------29.86- 82.6-----
2024-04-17 03:06 pm-------29.86- 82.8-----
2024-04-17 03:00 pm-------29.86-0.05 83.1-----
2024-04-17 02:54 pm-------29.87- 83.7-----
2024-04-17 02:48 pm-------29.86- 83.7-----
2024-04-17 02:42 pm-------29.86- 84.0-----
2024-04-17 02:36 pm-------29.87- 83.8-----
2024-04-17 02:30 pm-------29.87- 83.7-----
2024-04-17 02:24 pm-------29.87- 83.7-----
2024-04-17 02:18 pm-------29.88- 83.5-----
2024-04-17 02:12 pm-------29.88- 83.3-----
2024-04-17 02:06 pm-------29.88- 83.3-----
2024-04-17 02:00 pm-------29.88-0.05 83.1-----
2024-04-17 01:54 pm-------29.88- 82.9-----